Regional Weather Roundup
Issued by NWS Kansas City/Pleasant Hill, MO

Home | Current Version | Previous Version | Text Only | Print | Product List | Glossary On
Versions: 1 2 3 4 5 6 7 8 9 10 11 12 13 14 15 16 17 18 19 20 21 22 23 24 25 26 27 28 29 30 31 32 33 34 35 36 37 38 39 40 41 42 43 44 45 46 47 48 49 50
000
ASUS43 KEAX 290404
RWREAX

WEATHER ROUNDUP FOR EASTERN KANSAS AND NORTHWEST MISSOURI
NATIONAL WEATHER SERVICE KANSAS CITY/PLEASANT HILL MO
1100 PM CDT MON JUL 28 2014

KSZ040-057-103>105-MOZ028-029-037-043-290500-
...KANSAS CITY METROPOLITAN AREA...

CITY           SKY/WX    TMP DP  RH WIND       PRES   REMARKS
K.C. INTL      PTCLDY    66  59  78 NW6       30.18R
K.C. DOWNTOWN  CLEAR     71  60  68 NW3       30.16S
LEES SUMMIT    CLEAR     68  58  70 CALM      30.18R
OLATHE - IXD   CLEAR     64  59  83 N7        30.18S
OLATHE - OJC   CLEAR     70  59  68 N3        30.17S
LAWRENCE       CLEAR     63  57  81 NW3       30.18S

$$

MOZ001>008-011>017-020>025-030>033-038>040-044>046-053-054-290500-
...NORTHERN AND CENTRAL MISSOURI...

CITY           SKY/WX    TMP DP  RH WIND       PRES   REMARKS
ST. JOSEPH     CLEAR     64  59  83 CALM      30.17S
MOSBY          CLEAR     63  61  94 CALM      30.17S
WHITEMAN AFB   CLEAR     64  50  59 SW2       30.16R
CLINTON        CLEAR     64  61  88 CALM      30.16S
SEDALIA        CLEAR     67  57  70 CALM      30.16S
WARSAW         NOT AVBL
MARSHALL       CLEAR     68  61  77 CALM      30.16S
CHILLICOTHE      N/A     68  61  78 CALM      30.16S
KIRKSVILLE     MOCLDY    60  57  89 CALM      30.16F

$$

MOZ041-047>049-056>058-063>065-088>090-097-290500-
...EASTERN AND SOUTHERN MISSOURI...

CITY           SKY/WX    TMP DP  RH WIND       PRES   REMARKS
ST. LOUIS INTL CLEAR     66  54  65 NW5       30.13
SPIRIT OF STL  CLEAR     58  54  86 CALM      30.12S
COLUMBIA       CLEAR     61  55  81 NE7       30.15F
JEFFERSON CITY CLEAR     65  55  70 CALM      30.15R
HANNIBAL       CLEAR     63  55  77 CALM      30.15F
ROLLA            N/A     61  52  72 CALM      30.14S
LEBANON        CLEAR     68  55  64 NE3       30.18R
OSAGE BEACH    CLEAR     63  54  72 CALM      30.16R
SPRINGFIELD    CLEAR     69  58  67 N6        30.15S
BRANSON        CLEAR     66  57  72 N3        30.16S
NEVADA         CLEAR     66  59  77 NE5       30.17S
JOPLIN         CLEAR     67  59  75 NE3       30.16R
WEST PLAINS    CLEAR     67  57  70 N7        30.16R

$$

IAZ060-094-KSZ022-034>040-054-083-096-NEZ052-066-093-290500-
...KANSAS...SOUTHEAST NEBRASKA AND IOWA...

CITY           SKY/WX    TMP DP  RH WIND       PRES   REMARKS
TOPEKA         CLEAR     68  57  68 CALM      30.18S
MANHATTAN      CLEAR     68  58  70 CALM      30.19R
EMPORIA        CLEAR     69  56  62 NE7       30.18R
CHANUTE        CLEAR     72  57  59 NE7       30.17R
WICHITA        PTCLDY    76  57  51 NE8       30.17R
OMAHA          CLEAR     65  56  72 NW3       30.19R
LINCOLN        CLEAR     62  54  74 N6        30.21S
FALLS CITY     CLEAR     65  56  72 NW3       30.18R
LAMONI         PTCLDY    63  57  81 N3        30.17S
DES MOINES     CLEAR     65  59  81 NW3       30.16S

$$



USA.gov is the U.S. government's official web portal to all federal, state and local government web resources and services.